Погода в Бисмарке

США     46°47′42″N   100°46′59″W
темп.,
°C
ветер,
м/с
пор.,
м/с
влажн.,
%
обл.,
%
осадки,
мм/ч
давл.,
гПа
погр.,
м
19 апреля, пн
пн1901:000ссв5751100 0.0 10251094
04:00−3с51057100 0.0 1026938
07:00−4ссз38655 0.0 1027763
10:00−1ссз5744100 0.0 10271681
13:00+2ссз6735100 0.0 10252335
16:00+3ссз6829100 0.0 10242720
19:00+3ссз573198 0.0 10231960
22:00−1ссз224523 0.0 102411
20 апреля, вт
вт2001:00−1зсз1148100 0.0 102410
04:00−2зсз1151100 0.0 102410
07:00−2ссз2559100 0.0 1024182
10:00+1с5554100 0.0 10241101
13:00+3ссз4545100 0.6 10241784
16:00+3с6748100 0.9 10231689
19:00+3с6833100 0.9 10242035
22:000ссз375095 0.0 1026278
21 апреля, ср
ср2101:00−1сз2257100 0.0 102634
04:00−3сз23675 0.0 102758
07:00−3зсз23655 0.0 102781
10:00+3сз35375 0.0 1026897
13:00+7сз34325 0.0 10231705
16:00+10сз342974 0.0 10202124
19:00+10сз23295 0.0 10181995
22:00+5ю22420 0.0 101911
22 апреля, чт
чт2201:00+4ююз35460 0.0 101883
04:00+2ююз38500 0.0 1017148
07:00+1ююз36510 0.0 1017111
10:00+9ююз610340 0.0 1014785
13:00+14ююз79240 0.0 10111835
16:00+16ююз79200 0.0 10072461
19:00+16ююз58245 0.0 10062694
22:00+10ю513414 0.0 1006329
23 апреля, пт
пт2301:00+8ю613626 0.0 1007468
04:00+5ю387967 0.0 1007245
07:00+4зсз4784100 0.0 1009283
10:00+4ссз786777 0.0 1011798
13:00+4с7858100 0.0 10131147
16:00+1с6881100 0.8 1016848
19:000с7878100 1.4 1018874
22:00−2с478322 0.1 1021722